Location: Karcze
(52.0945°N, 22.4786°E)
Time: 12:29:26
(UTC+00:00)

Meteor 1-4 Rocket - Pass Details

Date: 14 July 2020
Orbit: 449 x 502 km, 81.2° (Epoch: 07 August)

Event Time Altitude Azimuth Distance (km) Brightness Sun altitude
Rises 00:14:50 0° 334° (NNW) 2,593 6.9 -13.2°
Reaches altitude 10° 00:17:29 10° 315° (NW) 1,695 5.6 -13.0°
Maximum altitude 00:20:00 18° 272° (W) 1,280 4.5 -12.8°
Enters shadow 00:21:22 15° 245° (WSW) 1,406 4.4 -12.8°
